[[{"header":{"parameterUnit":"m.s-1","parameterCategory":1,"la1":30.2991,"la2":30.254,"lo1":-89.0895,"lo2":-89.0444,"dy":0.0017,"dx":0.0017,"nx":28,"ny":28,"refTime":"2024-03-26T03:00:00:Z","depth":0,"parameterNumber":2,"parameterNumberName":"U-component_of_WINDS"},"data":[0,0,0,0,0,0,0,0,0,0,0,0,0,0,0,0,0,0,0,0,0,0,0,0,0,0,0,0,0,0,0,0,0,0,0,0,0,0,0,0,0,0,0,0,0,0,0,0,0,0,0,0,0,0,0,0,0,0,4.4482,4.4476,0,4.3962,4.3956,4.395,4.3717,4.3718,4.3719,4.372,4.3152,4.3137,4.3121,0,0,0,0,0,0,0,0,0,0,0,0,0,4.5232,4.522,4.4482,4.4476,4.4469,4.3963,4.3956,4.3949,4.3717,4.3718,4.3719,4.372,4.3157,4.3138,4.3119,0,0,0,0,0,0,0,0,0,0,0,0,0,4.4828,4.5216,4.4483,4.4294,4.4272,4.3965,4.3956,4.3947,4.3717,4.3718,4.3719,4.372,4.3163,4.314,4.3117,4.2949,0,0,4.3044,4.3034,0,0,0,0,0,0,0,0,4.4851,4.4801,4.4328,4.4306,4.4281,4.3907,4.4012,4.3611,4.3717,4.3927,4.372,4.3721,4.34,4.3357,4.3256,4.2922,4.2898,4.3042,4.3028,4.3018,4.3011,0,0,0,0,0,0,0,4.488,4.4821,4.4275,4.4321,4.4292,4.422,4.4164,4.3935,4.3662,4.3908,4.389,4.3834,4.3387,4.3279,4.324,4.2889,4.3043,4.3022,4.3007,4.2998,4.2375,4.2372,0,0,0,0,0,0,4.4944,4.4847,4.4292,4.426,4.4576,4.4206,4.4143,4.4025,4.3664,4.3611,4.3834,4.3825,4.3319,4.3268,4.322,4.299,4.3018,4.2996,4.2982,4.2377,4.2374,4.2372,0,0,0,0,0,0,4.4961,4.4897,4.4313,4.4548,4.4468,4.4193,4.4061,4.4014,4.3907,4.3608,4.3554,4.3777,4.3318,4.3253,4.3017,4.2968,4.2985,4.2964,4.238,4.2376,4.2373,4.2537,0,0,0,0,0,0,4.4984,4.4905,4.4849,4.4549,4.4457,4.4133,4.4058,4.4003,4.3871,4.3855,4.354,4.3489,4.3314,4.3054,4.2993,4.2935,4.2945,4.2383,4.2378,4.2374,4.2535,4.254,4.2544,0,0,0,0,0,4.5012,4.4911,4.4848,4.4782,4.4384,4.4131,4.4076,4.3887,4.3869,4.3802,4.3607,4.3499,4.2984,4.3032,4.2962,4.2896,4.2385,4.2379,4.2374,4.2533,4.2539,4.2544,0,0,0,0,0,0,4.5202,4.4869,4.4794,4.4597,4.4395,4.4093,4.4004,4.3901,4.3692,4.3684,4.3446,4.3376,4.3158,4.3002,4.3062,4.2706,4.2673,4.2654,4.2817,4.2821,4.2825,4.2865,4.2925,0,0,0,0,0,4.5223,4.5059,4.477,4.4622,4.4526,4.4283,4.4166,4.4038,4.3814,4.3724,4.3513,4.3289,4.3074,4.2939,4.2726,4.251,4.243,4.2429,4.2434,4.2439,4.2423,4.2284,4.2277,4.2354,4.2354,4.2354,0,0,4.5261,4.5058,4.4967,4.4656,4.4484,4.4305,4.4213,4.4029,4.3889,4.3691,4.3458,4.3294,4.3026,4.2798,4.2686,4.2661,4.2384,4.2432,4.2439,4.2419,4.2278,4.2271,4.2265,4.2351,4.2351,4.2352,0,0,4.5238,4.5074,4.4929,4.4759,4.4504,4.4341,4.4306,4.4017,4.3903,4.3667,4.3512,4.3334,4.2975,4.2788,4.2646,4.2542,4.2428,4.2477,4.25,4.2367,4.2361,4.2354,4.2308,4.2295,4.2463,4.2464,4.2464,0,4.5315,4.5053,4.4864,4.4689,4.455,4.4371,4.4213,4.4053,4.3736,4.3638,4.3617,4.3155,4.2963,4.2683,4.2657,4.2551,4.2491,4.2512,4.238,4.2371,4.2361,4.2314,4.2298,4.2471,4.247,4.2469,4.2469,0,4.5154,4.4973,4.4883,4.4593,4.4443,4.4277,4.4049,4.3917,4.3798,4.3633,4.3384,4.3148,4.288,4.2803,4.2683,4.25,4.2491,4.2429,4.239,4.2365,4.2315,4.2296,4.2481,4.2479,4.2477,4.2475,0,0,4.5241,4.4846,4.4816,4.4677,4.4377,4.4226,4.4043,4.3791,4.3678,4.3461,4.3293,4.2989,4.2926,4.2765,4.2619,4.2504,4.2423,4.2451,4.2441,4.2448,4.2194,4.2241,4.2225,4.2348,4.2343,4.234,4.2214,0,4.5173,4.4857,4.4676,4.4426,4.4248,4.407,4.3908,4.3699,4.3536,4.3349,4.3163,4.2949,4.2888,4.2787,4.2666,4.2461,4.2368,4.2467,4.2175,4.2167,4.2246,4.22,4.2251,4.2145,4.2194,4.2191,4.2188,0,4.5055,4.4851,4.4588,4.43,4.4217,4.4079,4.3826,4.3655,4.3406,4.3293,4.3111,4.2966,4.2749,4.2729,4.242,4.2491,4.2358,4.2238,4.2228,4.2191,4.2175,4.2154,4.2107,4.2089,4.2158,4.216,4.2162,0,4.5137,4.4795,4.4591,4.4478,4.4139,4.4043,4.3894,4.3648,4.3504,4.3277,4.3178,4.2927,4.2787,4.2588,4.2372,4.2379,4.2079,4.2043,4.1968,4.1973,4.1911,4.1918,4.1836,4.1835,4.1836,4.1836,4.1836,0,4.5078,4.4921,4.4623,4.4497,4.4309,4.4095,4.3911,4.3745,4.3526,4.3352,4.3178,4.3015,4.2743,4.2541,4.2369,4.2132,4.2071,4.1964,4.1919,4.1977,4.199,4.1885,4.1885,4.1831,4.1832,4.1833,4.1834,0,4.514,4.4935,4.4699,4.4398,4.4317,4.4192,4.3925,4.3786,4.3614,4.3395,4.333,4.3053,4.2806,4.2572,4.2239,4.2121,4.1881,4.1825,4.197,4.1944,4.188,4.1887,4.1724,4.1686,4.1718,4.1719,4.1719,0,4.5115,4.4991,4.4677,4.4555,4.4413,4.4216,4.4069,4.3847,4.3698,4.34,4.3293,4.3036,4.2819,4.2428,4.2188,4.1928,4.186,4.1821,4.182,4.1879,4.185,4.1859,4.184,4.1825,4.1826,4.1827,4.1827,0,4.509,4.4993,4.4797,4.456,4.4393,4.4193,4.3985,4.389,4.3624,4.3463,4.3215,4.3046,4.2707,4.2447,4.2159,4.1987,4.1857,4.183,4.1797,4.1853,4.194,4.1884,4.1976,4.1834,4.1833,4.1833,4.1832,4.1832,4.5101,4.498,4.474,4.4521,4.4343,4.4151,4.4005,4.3815,4.3608,4.3323,4.3199,4.2944,4.268,4.2282,4.2111,4.1897,4.1867,4.1822,4.1809,4.18,4.1809,4.1978,4.1843,4.1843,4.1842,4.1842,4.1841,0,4.5062,4.4898,4.47,4.4419,4.4243,4.4148,4.391,4.3764,4.3547,4.3319,4.3109,4.2814,4.2559,4.2298,4.2024,4.1901,4.1833,4.1836,4.184,4.1799,4.1855,4.1908,4.1895,4.1895,4.1895,4.1895,4.1895,4.1895,4.5021,4.4808,4.468,4.4369,4.4199,4.3959,4.383,4.3645,4.3462,4.3146,4.2937,4.2772,4.2523,4.2229,4.1985,4.1912,4.1815,4.1834,4.1743,4.18,4.1797,4.1795,4.1843,4.1816,4.1816,4.1704,4.1703,4.1703]},{"header":{"parameterUnit":"m.s-1","parameterCategory":1,"la1":30.2991,"la2":30.254,"lo1":-89.0895,"lo2":-89.0444,"dy":0.0017,"dx":0.0017,"nx":28,"ny":28,"refTime":"2024-03-26T03:00:00:Z","depth":0,"parameterNumber":3,"parameterNumberName":"V-component_of_WINDS"},"data":[0,0,0,0,0,0,0,0,0,0,0,0,0,0,0,0,0,0,0,0,0,0,0,0,0,0,0,0,0,0,0,0,0,0,0,0,0,0,0,0,0,0,0,0,0,0,0,0,0,0,0,0,0,0,0,0,0,0,-1.2729,-1.2712,0,-1.1125,-1.1107,-1.1088,-1.061,-1.0619,-1.0627,-1.0635,-0.896,-0.8909,-0.8857,0,0,0,0,0,0,0,0,0,0,0,0,0,-1.5352,-1.5307,-1.2731,-1.2711,-1.2691,-1.1128,-1.1106,-1.1084,-1.0609,-1.0619,-1.0629,-1.0639,-0.8977,-0.8915,-0.8852,0,0,0,0,0,0,0,0,0,0,0,0,0,-1.4027,-1.5292,-1.2734,-1.2266,-1.2208,-1.1132,-1.1105,-1.1078,-1.0607,-1.0619,-1.0632,-1.0644,-0.8997,-0.8921,-0.8844,-0.8108,0,0,-0.8603,-0.8569,0,0,0,0,0,0,0,0,-1.4103,-1.3931,-1.2355,-1.2296,-1.223,-1.1081,-1.1415,-1.0081,-1.0604,-1.1214,-1.0635,-1.065,-0.9653,-0.9522,-0.9192,-0.8029,-0.7957,-0.8596,-0.8549,-0.8515,-0.8493,0,0,0,0,0,0,0,-1.4195,-1.3997,-1.2094,-1.2333,-1.2256,-1.2126,-1.1951,-1.116,-1.0381,-1.1162,-1.1123,-1.0942,-0.9621,-0.9269,-0.9149,-0.7933,-0.8599,-0.8529,-0.848,-0.845,-0.6077,-0.6062,0,0,0,0,0,0,-1.4371,-1.4077,-1.2145,-1.2046,-1.3217,-1.2069,-1.1873,-1.1437,-1.0389,-1.0242,-1.0933,-1.0925,-0.9397,-0.9241,-0.9089,-0.815,-0.8516,-0.8442,-0.8397,-0.6092,-0.6073,-0.6056,0,0,0,0,0,0,-1.4429,-1.4203,-1.221,-1.305,-1.2787,-1.201,-1.1523,-1.1398,-1.1046,-1.0217,-1.0072,-1.0718,-0.9401,-0.9199,-0.8355,-0.8086,-0.8407,-0.8335,-0.6111,-0.6087,-0.6065,-0.6276,0,0,0,0,0,0,-1.4507,-1.4227,-1.3947,-1.3048,-1.2744,-1.1514,-1.1507,-1.1358,-1.0915,-1.0891,-0.9977,-0.9837,-0.9395,-0.8476,-0.8278,-0.7983,-0.8274,-0.6131,-0.61,-0.6072,-0.6289,-0.6262,-0.6239,0,0,0,0,0,-1.4602,-1.4065,-1.3936,-1.3705,-1.2379,-1.15,-1.1324,-1.0836,-1.0897,-1.0601,-1.0069,-0.9866,-0.8152,-0.8393,-0.8166,-0.7845,-0.6146,-0.6109,-0.6074,-0.63,-0.6267,-0.624,0,0,0,0,0,0,-1.494,-1.3938,-1.3783,-1.2942,-1.2312,-1.1421,-1.1035,-1.0818,-1.0147,-1.0151,-0.9565,-0.9362,-0.8559,-0.8117,-0.8405,-0.7073,-0.7141,-0.7058,-0.739,-0.7352,-0.7328,-0.7445,-0.8208,0,0,0,0,0,-1.4921,-1.43,-1.3453,-1.2792,-1.2484,-1.1817,-1.1415,-1.1095,-1.0412,-1.0139,-0.9544,-0.8882,-0.8191,-0.7749,-0.7069,-0.6227,-0.6014,-0.5893,-0.5869,-0.5853,-0.5784,-0.5297,-0.523,-0.5939,-0.5939,-0.594,0,0,-1.4865,-1.4241,-1.3883,-1.2844,-1.2317,-1.1677,-1.1594,-1.092,-1.0435,-1.0032,-0.92,-0.8743,-0.7963,-0.7117,-0.6713,-0.6723,-0.5543,-0.5807,-0.5801,-0.5737,-0.5253,-0.5187,-0.5128,-0.5914,-0.5919,-0.5923,0,0,-1.4436,-1.3909,-1.3295,-1.2772,-1.198,-1.1539,-1.1395,-1.0534,-1.0217,-0.9377,-0.9059,-0.8471,-0.7299,-0.6754,-0.6324,-0.5695,-0.5478,-0.549,-0.5353,-0.4886,-0.483,-0.4777,-0.4543,-0.4467,-0.5426,-0.5427,-0.5427,0,-1.4465,-1.3498,-1.3006,-1.2347,-1.1895,-1.1515,-1.0883,-1.0395,-0.9418,-0.9109,-0.914,-0.7659,-0.7107,-0.6124,-0.5973,-0.564,-0.5445,-0.5585,-0.4881,-0.4822,-0.4765,-0.4535,-0.4449,-0.5433,-0.5432,-0.5431,-0.5431,0,-1.3567,-1.2901,-1.25,-1.1576,-1.1079,-1.0439,-0.9839,-0.9394,-0.912,-0.8674,-0.7817,-0.7145,-0.632,-0.6065,-0.5786,-0.5038,-0.5069,-0.4999,-0.5051,-0.4713,-0.4485,-0.4393,-0.5441,-0.5439,-0.5437,-0.5436,0,0,-1.3296,-1.2115,-1.1974,-1.1548,-1.0648,-1.0117,-0.9457,-0.8661,-0.8286,-0.7626,-0.7048,-0.6069,-0.5997,-0.5509,-0.5166,-0.4759,-0.4291,-0.4732,-0.4705,-0.4665,-0.3415,-0.3468,-0.3374,-0.415,-0.4131,-0.4116,-0.3478,0,-1.2745,-1.1559,-1.1098,-1.0126,-0.9498,-0.913,-0.8552,-0.7933,-0.75,-0.6896,-0.6413,-0.5725,-0.5688,-0.539,-0.4972,-0.4439,-0.403,-0.4479,-0.3592,-0.3567,-0.3789,-0.3256,-0.3307,-0.2737,-0.3387,-0.3371,-0.336,0,-1.1941,-1.1284,-1.0254,-0.9429,-0.9147,-0.8638,-0.7868,-0.7302,-0.6588,-0.63,-0.5762,-0.5444,-0.4726,-0.4838,-0.3835,-0.4151,-0.3762,-0.3446,-0.3411,-0.3298,-0.3436,-0.3119,-0.2544,-0.2456,-0.3217,-0.3229,-0.3239,0,-1.1836,-1.0692,-0.9925,-0.9574,-0.8595,-0.8244,-0.7818,-0.7118,-0.6668,-0.5994,-0.5693,-0.4944,-0.4529,-0.3951,-0.3435,-0.3566,-0.2477,-0.2547,-0.2207,-0.222,-0.1983,-0.2003,-0.1328,-0.1756,-0.1757,-0.1759,-0.1761,0,-1.126,-1.0642,-0.9865,-0.9392,-0.8685,-0.8159,-0.747,-0.7018,-0.64,-0.5824,-0.5461,-0.4927,-0.4286,-0.3666,-0.3259,-0.2485,-0.2303,-0.2042,-0.1938,-0.2066,-0.2099,-0.1793,-0.1815,-0.1735,-0.1741,-0.1745,-0.1749,0,-1.1017,-1.0474,-0.9612,-0.876,-0.8531,-0.8047,-0.731,-0.6832,-0.6389,-0.5665,-0.5464,-0.476,-0.4013,-0.3447,-0.2475,-0.2201,-0.1375,-0.1272,-0.1619,-0.1563,-0.1252,-0.1285,-0.0346,-0.0191,-0.074,-0.0735,-0.0732,0,-1.068,-1.0196,-0.9295,-0.8889,-0.8469,-0.7819,-0.736,-0.6823,-0.6358,-0.5511,-0.5132,-0.4364,-0.3718,-0.254,-0.1935,-0.1188,-0.1056,-0.078,-0.0939,-0.1083,-0.1036,-0.1067,-0.1011,-0.0754,-0.0751,-0.0749,-0.0746,0,-1.0136,-0.9892,-0.9251,-0.8513,-0.7979,-0.737,-0.6753,-0.644,-0.579,-0.5285,-0.4523,-0.4024,-0.3036,-0.2271,-0.1466,-0.1014,-0.0764,-0.0704,-0.0583,-0.0702,-0.0918,-0.0786,-0.1548,-0.0723,-0.0726,-0.0727,-0.0728,-0.0729,-0.9823,-0.9375,-0.8671,-0.7966,-0.7449,-0.6882,-0.6391,-0.5889,-0.5247,-0.4406,-0.4128,-0.3338,-0.2631,-0.1525,-0.1068,-0.0435,-0.0429,-0.0259,-0.0211,-0.0174,-0.018,-0.1034,-0.0288,-0.0287,-0.0287,-0.0287,-0.0287,0,-0.925,-0.8782,-0.8141,-0.7294,-0.6738,-0.6572,-0.588,-0.5422,-0.4736,-0.4104,-0.348,-0.26,-0.1858,-0.1201,-0.0427,-0.0046,0.0088,0.014,0.0126,0.0228,-0.0234,-0.0411,0.002,0.0019,0.0019,0.0019,0.0019,0.0019,-0.8886,-0.8115,-0.7789,-0.6755,-0.6286,-0.5517,-0.5136,-0.4607,-0.41,-0.3138,-0.2524,-0.2106,-0.1457,-0.0635,0.0056,0.0232,0.0506,0.0532,0.0737,0.0296,0.0259,0.0223,0.0061,0.0584,0.0584,0.115,0.1155,0.1158]}]]